[[{"header":{"parameterUnit":"m.s-1","parameterCategory":1,"la1":30.2991,"la2":30.254,"lo1":-89.0895,"lo2":-89.0444,"dy":0.0017,"dx":0.0017,"nx":28,"ny":28,"refTime":"2025-03-22T21:00:00:Z","depth":0,"parameterNumber":2,"parameterNumberName":"U-component_of_WINDS"},"data":[0,0,0,0,0,0,0,0,0,0,0,0,0,0,0,0,0,0,0,0,0,0,0,0,0,0,0,0,0,0,0,0,0,0,0,0,0,0,0,0,0,0,0,0,0,0,0,0,0,0,0,0,0,0,0,0,0,0,1.1114,1.1115,0,1.114,1.114,1.1141,1.1169,1.1169,1.117,1.117,1.1197,1.1198,1.1198,0,0,0,0,0,0,0,0,0,0,0,0,0,1.1093,1.1093,1.1114,1.1115,1.1115,1.114,1.114,1.1141,1.1169,1.1169,1.117,1.117,1.1197,1.1198,1.1198,0,0,0,0,0,0,0,0,0,0,0,0,0,1.1109,1.1093,1.1114,1.1132,1.1134,1.114,1.114,1.1141,1.1169,1.1169,1.117,1.1171,1.1197,1.1198,1.1198,1.1189,0,0,1.12,1.12,0,0,0,0,0,0,0,0,1.1108,1.1109,1.1129,1.1131,1.1133,1.1152,1.1143,1.1157,1.1169,1.1156,1.117,1.1171,1.1182,1.1184,1.1187,1.119,1.1192,1.12,1.12,1.12,1.1201,0,0,0,0,0,0,0,1.1106,1.1108,1.1125,1.1129,1.1132,1.114,1.1143,1.1146,1.1165,1.1157,1.1159,1.1161,1.1183,1.1187,1.1188,1.1192,1.12,1.12,1.1201,1.1201,1.1192,1.1191,0,0,0,0,0,0,1.1102,1.1107,1.1124,1.1125,1.1121,1.114,1.1143,1.1145,1.1165,1.1169,1.1161,1.1163,1.1185,1.1187,1.1189,1.1181,1.12,1.1201,1.1201,1.1192,1.1192,1.1191,0,0,0,0,0,0,1.1102,1.1104,1.1123,1.1117,1.112,1.1139,1.1142,1.1145,1.1149,1.1168,1.1172,1.1161,1.1186,1.1188,1.1189,1.1183,1.1201,1.1202,1.1193,1.1192,1.1191,1.1165,0,0,0,0,0,0,1.1101,1.1103,1.1099,1.1117,1.112,1.1122,1.1141,1.1145,1.115,1.1152,1.1169,1.1172,1.1187,1.1189,1.119,1.1184,1.1202,1.1194,1.1193,1.1192,1.1166,1.1163,1.1161,0,0,0,0,0,1.11,1.109,1.1099,1.11,1.1115,1.1121,1.1123,1.1139,1.1149,1.1146,1.1159,1.1172,1.1183,1.1188,1.119,1.1184,1.1194,1.1193,1.1192,1.1168,1.1164,1.1161,0,0,0,0,0,0,1.1071,1.1093,1.1102,1.1098,1.1107,1.1126,1.1122,1.1134,1.1142,1.1144,1.1164,1.1168,1.1167,1.1176,1.1181,1.1178,1.1191,1.119,1.1172,1.1168,1.1166,1.1164,1.1202,0,0,0,0,0,1.1064,1.1066,1.1085,1.1079,1.1084,1.1102,1.1105,1.1117,1.1128,1.1132,1.1145,1.1156,1.1162,1.1166,1.1172,1.1168,1.1173,1.1165,1.1162,1.1159,1.1159,1.1159,1.1156,1.1187,1.1187,1.1187,0,0,1.105,1.1062,1.1062,1.1074,1.1083,1.1086,1.1105,1.1107,1.111,1.1133,1.1135,1.1145,1.1158,1.1157,1.1157,1.1164,1.1151,1.1158,1.1156,1.1156,1.1158,1.1155,1.1152,1.1186,1.1186,1.1187,0,0,1.1025,1.1034,1.1031,1.104,1.1053,1.1066,1.1065,1.1083,1.109,1.1093,1.1111,1.1115,1.1124,1.1134,1.114,1.1122,1.1135,1.1124,1.1108,1.1109,1.1106,1.1104,1.1099,1.1097,1.1123,1.1123,1.1123,0,1.1006,1.101,1.1028,1.1029,1.1035,1.1056,1.1054,1.1062,1.1077,1.1081,1.1089,1.1103,1.1114,1.1116,1.1112,1.1116,1.1117,1.1122,1.1105,1.1103,1.1102,1.1097,1.1095,1.1121,1.1121,1.1121,1.1122,0,1.0986,1.099,1.0986,1.1,1.1005,1.1005,1.1024,1.1027,1.1039,1.1052,1.1055,1.1069,1.108,1.1081,1.1092,1.1086,1.109,1.1101,1.1115,1.1097,1.1093,1.1092,1.1119,1.112,1.112,1.112,0,0,1.0943,1.0969,1.0967,1.0975,1.0993,1.0996,1.0998,1.1008,1.1012,1.1022,1.1025,1.1034,1.1045,1.1052,1.1065,1.1065,1.1052,1.1077,1.1077,1.1073,1.1048,1.104,1.1038,1.1061,1.1061,1.1061,1.1048,0,1.0923,1.0926,1.0943,1.0942,1.0946,1.0968,1.097,1.0981,1.0993,1.1,1.1013,1.102,1.1033,1.1038,1.1039,1.1053,1.1048,1.1055,1.1066,1.1066,1.1062,1.1036,1.1027,1.1014,1.1046,1.1046,1.1046,0,1.0898,1.0908,1.0907,1.0927,1.093,1.0931,1.0943,1.0948,1.0963,1.0972,1.0981,1.0996,1.1001,1.1013,1.1021,1.1025,1.1031,1.1039,1.1039,1.1041,1.1055,1.1038,1.101,1.1008,1.1043,1.1043,1.1044,0,1.0869,1.0881,1.0883,1.0889,1.0911,1.0912,1.0922,1.0937,1.0943,1.0954,1.0959,1.0971,1.0977,1.0986,1.1005,1.1012,1.1011,1.1025,1.102,1.102,1.1019,1.1019,1.0992,1.1021,1.1021,1.1021,1.1021,0,1.0844,1.0843,1.087,1.0871,1.0872,1.0892,1.0893,1.0904,1.0918,1.0923,1.0943,1.0947,1.0971,1.0979,1.0993,1.0999,1.1001,1.101,1.1014,1.1008,1.1007,1.1012,1.1014,1.1021,1.1021,1.1021,1.1021,0,1.0811,1.0829,1.0832,1.0854,1.086,1.0859,1.0878,1.0881,1.0895,1.0901,1.0904,1.0926,1.0936,1.0956,1.0971,1.0981,1.0984,1.099,1.0979,1.0982,1.0976,1.0977,1.0952,1.0951,1.098,1.098,1.0979,0,1.0794,1.0794,1.0816,1.0821,1.083,1.0837,1.0844,1.0865,1.0871,1.0889,1.089,1.0902,1.0913,1.0929,1.0947,1.096,1.0967,1.0958,1.0969,1.0964,1.0969,1.0969,1.097,1.0955,1.0955,1.0954,1.0954,0,1.0764,1.0773,1.0781,1.0794,1.0801,1.0812,1.0824,1.0827,1.0851,1.0857,1.0868,1.0877,1.0894,1.0906,1.0922,1.0933,1.0948,1.095,1.095,1.0945,1.0939,1.0943,1.0973,1.0951,1.0951,1.0951,1.0951,1.0952,1.0739,1.0741,1.0757,1.0767,1.0778,1.0789,1.0794,1.0809,1.0818,1.0833,1.0845,1.0856,1.0873,1.0896,1.0906,1.0916,1.0923,1.0922,1.0922,1.0922,1.092,1.0937,1.0919,1.0919,1.0919,1.0919,1.0919,0,1.071,1.0722,1.0731,1.0747,1.0756,1.0769,1.0783,1.079,1.0798,1.0813,1.0823,1.0837,1.085,1.087,1.0884,1.0888,1.0896,1.0892,1.0892,1.0895,1.0912,1.0912,1.0885,1.0885,1.0885,1.0885,1.0885,1.0885,1.0696,1.0701,1.0712,1.0724,1.0736,1.0746,1.0753,1.0765,1.0777,1.0791,1.0802,1.0814,1.0832,1.0848,1.0861,1.0867,1.0872,1.0866,1.0874,1.089,1.0893,1.0896,1.0895,1.0866,1.0866,1.0855,1.0855,1.0855]},{"header":{"parameterUnit":"m.s-1","parameterCategory":1,"la1":30.2991,"la2":30.254,"lo1":-89.0895,"lo2":-89.0444,"dy":0.0017,"dx":0.0017,"nx":28,"ny":28,"refTime":"2025-03-22T21:00:00:Z","depth":0,"parameterNumber":3,"parameterNumberName":"V-component_of_WINDS"},"data":[0,0,0,0,0,0,0,0,0,0,0,0,0,0,0,0,0,0,0,0,0,0,0,0,0,0,0,0,0,0,0,0,0,0,0,0,0,0,0,0,0,0,0,0,0,0,0,0,0,0,0,0,0,0,0,0,0,0,3.3883,3.3884,0,3.3965,3.3966,3.3967,3.3984,3.3983,3.3983,3.3982,3.4063,3.4065,3.4068,0,0,0,0,0,0,0,0,0,0,0,0,0,3.3736,3.3739,3.3883,3.3884,3.3885,3.3965,3.3966,3.3967,3.3984,3.3983,3.3983,3.3982,3.4062,3.4065,3.4068,0,0,0,0,0,0,0,0,0,0,0,0,0,3.3807,3.374,3.3882,3.3903,3.3906,3.3964,3.3966,3.3967,3.3984,3.3983,3.3982,3.3981,3.4061,3.4065,3.4069,3.4112,0,0,3.4081,3.4083,0,0,0,0,0,0,0,0,3.3803,3.3812,3.3899,3.3902,3.3905,3.3963,3.3944,3.4016,3.3984,3.3954,3.3982,3.3981,3.403,3.4037,3.4054,3.4116,3.4119,3.4081,3.4084,3.4086,3.4087,0,0,0,0,0,0,0,3.3798,3.3809,3.3915,3.39,3.3904,3.3907,3.3916,3.3957,3.3996,3.3957,3.3958,3.3968,3.4031,3.405,3.4056,3.412,3.4081,3.4085,3.4087,3.4089,3.422,3.4221,0,0,0,0,0,0,3.379,3.3805,3.3912,3.3917,3.3851,3.391,3.392,3.3945,3.3996,3.4003,3.3969,3.3968,3.4043,3.4051,3.4059,3.4112,3.4085,3.4089,3.4092,3.4219,3.4221,3.4222,0,0,0,0,0,0,3.3787,3.38,3.3909,3.3862,3.3876,3.3914,3.3942,3.3947,3.3966,3.4005,3.4011,3.3981,3.4043,3.4053,3.4099,3.4115,3.4091,3.4095,3.4218,3.422,3.4221,3.422,0,0,0,0,0,0,3.3783,3.3798,3.3816,3.3862,3.3878,3.3949,3.3943,3.395,3.3973,3.3974,3.4018,3.4024,3.4043,3.4092,3.4103,3.412,3.4098,3.4217,3.4219,3.4221,3.4218,3.4221,3.4223,0,0,0,0,0,3.3777,3.3812,3.3817,3.383,3.3902,3.395,3.3959,3.3981,3.3975,3.3992,3.4017,3.4023,3.4112,3.4097,3.4108,3.4128,3.4216,3.4218,3.4221,3.4217,3.422,3.4223,0,0,0,0,0,0,3.3766,3.3818,3.3825,3.3875,3.3908,3.3952,3.3975,3.3984,3.4018,3.4017,3.4042,3.4052,3.4096,3.4116,3.4099,3.4172,3.4163,3.4168,3.4157,3.416,3.4162,3.4156,3.4101,0,0,0,0,0,3.3769,3.3805,3.3849,3.3889,3.3905,3.3937,3.3959,3.3973,3.4008,3.4022,3.405,3.4082,3.4117,3.414,3.4174,3.4221,3.4231,3.424,3.4243,3.4244,3.4248,3.4274,3.4278,3.423,3.423,3.4229,0,0,3.3776,3.3809,3.383,3.3887,3.3914,3.395,3.3949,3.3986,3.4013,3.4027,3.4072,3.4093,3.4131,3.4177,3.4199,3.4196,3.4264,3.4247,3.4249,3.4251,3.4277,3.4281,3.4285,3.4231,3.4231,3.4231,0,0,3.3807,3.3837,3.3873,3.3901,3.3942,3.3963,3.3972,3.4016,3.4031,3.4077,3.4088,3.4119,3.4179,3.4205,3.4226,3.4267,3.4273,3.4277,3.429,3.4315,3.4318,3.4322,3.4336,3.4341,3.4281,3.4281,3.4281,0,3.3811,3.3866,3.389,3.3928,3.3952,3.3968,3.4004,3.4029,3.4079,3.4095,3.4091,3.4167,3.4193,3.4245,3.4255,3.4272,3.4282,3.4272,3.4316,3.432,3.4323,3.4337,3.4342,3.4281,3.4281,3.4281,3.4281,0,3.3868,3.3906,3.393,3.3979,3.4006,3.4043,3.4071,3.4095,3.4107,3.4128,3.4174,3.4206,3.4247,3.4261,3.4272,3.4315,3.4311,3.4311,3.4303,3.4328,3.4341,3.4347,3.4281,3.4281,3.4281,3.4281,0,0,3.3894,3.3956,3.3965,3.3987,3.4034,3.4063,3.41,3.4141,3.4161,3.4195,3.4226,3.4276,3.4277,3.43,3.4315,3.4337,3.4366,3.4334,3.4335,3.4339,3.4414,3.4414,3.4419,3.4371,3.4372,3.4373,3.4411,0,3.393,3.3998,3.4021,3.4076,3.4111,3.4126,3.4158,3.4189,3.421,3.4242,3.4264,3.4299,3.4297,3.4312,3.4334,3.4358,3.4381,3.4355,3.4398,3.44,3.4389,3.4427,3.4426,3.4461,3.4416,3.4417,3.4418,0,3.3982,3.4018,3.4077,3.412,3.4135,3.4163,3.4203,3.4233,3.4269,3.4282,3.4309,3.4322,3.4359,3.4349,3.4401,3.4382,3.4401,3.4415,3.4417,3.4422,3.441,3.4432,3.4473,3.4478,3.4426,3.4425,3.4425,0,3.3994,3.4057,3.4101,3.412,3.417,3.419,3.4211,3.4246,3.427,3.4304,3.4319,3.4356,3.4377,3.4405,3.4427,3.4418,3.4476,3.4468,3.4488,3.4487,3.4499,3.4498,3.4543,3.4511,3.4511,3.4511,3.4511,0,3.4032,3.4068,3.4107,3.4134,3.4174,3.4199,3.4238,3.426,3.4291,3.4321,3.4336,3.4364,3.4392,3.4423,3.444,3.448,3.4489,3.45,3.4504,3.4499,3.4497,3.4511,3.451,3.4513,3.4512,3.4512,3.4512,0,3.4053,3.4081,3.413,3.4174,3.4186,3.4213,3.425,3.4276,3.4297,3.4336,3.4346,3.4379,3.4416,3.4441,3.4489,3.45,3.4544,3.4547,3.4532,3.4534,3.4552,3.455,3.4608,3.4617,3.4579,3.4579,3.4579,0,3.4076,3.4104,3.4151,3.4173,3.4195,3.4231,3.4255,3.428,3.4305,3.4347,3.4368,3.4406,3.4439,3.4498,3.4525,3.4561,3.4566,3.4584,3.4571,3.4565,3.4566,3.4564,3.4567,3.4585,3.4586,3.4586,3.4586,0,3.4112,3.4125,3.416,3.42,3.4229,3.4261,3.4293,3.431,3.4341,3.4367,3.4407,3.4432,3.4481,3.4519,3.4558,3.4579,3.4587,3.459,3.4596,3.4591,3.4581,3.4587,3.4537,3.4588,3.4588,3.4588,3.4588,3.4588,3.4135,3.416,3.4198,3.4236,3.4263,3.4293,3.432,3.4345,3.4379,3.4422,3.4434,3.4475,3.4509,3.4562,3.4583,3.4615,3.4613,3.4622,3.4625,3.4627,3.4627,3.4576,3.4622,3.4622,3.4622,3.4622,3.4622,0,3.4172,3.4197,3.4233,3.4278,3.4308,3.4315,3.4351,3.4375,3.4411,3.4443,3.4475,3.4519,3.4556,3.4587,3.4624,3.4644,3.4648,3.4653,3.4651,3.4656,3.4626,3.4617,3.4648,3.4648,3.4648,3.4648,3.4648,3.4648,3.4195,3.4239,3.4256,3.4313,3.4337,3.4378,3.4398,3.4425,3.4451,3.4501,3.4532,3.4552,3.4583,3.4623,3.4657,3.4665,3.4678,3.4681,3.469,3.4661,3.4658,3.4655,3.4647,3.4684,3.4684,3.4717,3.4717,3.4718]}]]